Location: Wingville
(42.9917°N, 90.4915°W)
Time: 09:20:38
(UTC+00:00)

MOZHAYETS 4 - Visible Passes

Search period start: 29 June 2022 00:00
Search period end: 09 July 2022 00:00
Orbit: 660 x 679 km, 98.2° (Epoch: 28 June)

Date Brightness Start Highest point End Pass type
(mag) Time Alt. Az. Time Alt. Az. Time Alt. Az.
29 Jun 8.2 08:05:06 15° SSE 08:08:48 61° ENE 08:13:22 10° N visible
29 Jun 9.5 09:43:49 10° WSW 09:46:16 14° W 09:48:44 10° WNW visible
30 Jun 10.4 07:02:07 10° E 07:04:45 15° ENE 07:07:23 10° NNE visible
30 Jun 7.7 08:38:02 19° S 08:41:18 63° WSW 08:45:54 10° NNW visible
01 Jul 9.5 07:32:58 10° SE 07:36:57 29° ENE 07:40:56 10° N visible
01 Jul 8.7 09:10:58 15° SSW 09:13:57 29° W 09:17:59 10° NW visible
02 Jul 8.2 08:05:42 16° SSE 08:09:18 61° ENE 08:13:51 10° N visible
02 Jul 9.6 09:44:20 10° WSW 09:46:46 14° W 09:49:11 10° WNW visible
03 Jul 10.4 07:02:36 10° E 07:05:15 15° ENE 07:07:53 10° NNE visible
03 Jul 7.7 08:38:38 20° S 08:41:48 63° W 08:46:23 10° NNW visible
04 Jul 9.4 07:33:27 10° SE 07:37:26 30° ENE 07:41:25 10° N visible
04 Jul 8.7 09:11:34 16° SSW 09:14:27 29° W 09:18:28 10° NW visible
05 Jul 8.1 08:06:19 17° SSE 08:09:47 62° ENE 08:14:20 10° N visible
05 Jul 9.6 09:44:52 10° WSW 09:47:15 14° W 09:49:38 10° WNW visible
06 Jul 10.3 07:03:04 10° E 07:05:42 15° ENE 07:08:22 10° NNE visible
06 Jul 7.7 08:39:15 21° S 08:42:17 62° WSW 08:46:51 10° NNW visible
07 Jul 9.4 07:33:59 10° SE 07:37:55 30° ENE 07:41:53 10° N visible
07 Jul 8.7 09:12:11 17° SW 09:14:56 29° W 09:18:56 10° NW visible
08 Jul 8.1 08:06:55 18° SSE 08:10:16 62° ENE 08:14:48 10° N visible
08 Jul 9.6 09:45:24 10° WSW 09:47:44 14° W 09:50:04 10° WNW visible
